Regional Weather Roundup
Issued by NWS

Home | Current Version | Previous Version | Graphics & Text | Print | Product List | Glossary Off
Versions: 1 2 3 4 5 6 7 8 9 10 11 12 13 14 15 16 17 18 19 20 21 22 23 24 25 26 27 28 29 30 31 32 33 34 35 36 37 38 39 40 41 42 43 44 45 46 47 48 49 50

000
ASUS43 KMKX 242111
RWRWI

WISCONSIN REGIONAL WEATHER ROUNDUP
NATIONAL WEATHER SERVICE MILWAUKEE/SULLIVAN WI
400 PM CDT SUN SEP 24 2017

NOTE: "FAIR" INDICATES FEW OR NO CLOUDS BELOW 12,000 FEET WITH NO
SIGNIFICANT WEATHER AND/OR OBSTRUCTIONS TO VISIBILITY.

WIZ001-002-006>008-014>016-023>028-242200-
NORTHWEST WISCONSIN

CITY           SKY/WX    TMP DP  RH WIND       PRES   REMARKS
SUPERIOR ARPT  MOSUNNY   68  64  86 NE8       29.87F
ASHLAND        MOSUNNY   88  62  41 SW16      29.89F HX  88
HAYWARD        MOSUNNY   85  64  49 S15G23    29.92F HX  86
SIREN          SUNNY     87  62  42 S12       29.88F HX  88
CUMBERLAND     MOSUNNY   82  61  47 S12G21    29.92F HX  83
RICE LAKE      MOSUNNY   86  61  42 S14       29.94S HX  86
CHETEK         MOSUNNY   85  66  52 S13G20    29.93F HX  87
LADYSMITH      SUNNY     85  61  43 S13       29.97F HX  85
EAU CLAIRE     SUNNY     87  61  41 S14       29.92F HX  87
MENOMONIE      MOSUNNY   84  62  47 S7        29.92F HX  85
NEW RICHMOND   SUNNY     88  56  33 S14       29.89F HX  86
OSCEOLA        SUNNY    N/A N/A N/A S12G23    29.90F
$$

WIZ003>005-009-010-017-018-242200-
NORTH CENTRAL WISCONSIN

CITY           SKY/WX    TMP DP  RH WIND       PRES   REMARKS
MANITOWISH WTR NOT AVBL
ARBOR VITAE    SUNNY     85  61  44 S14G20    29.98F HX  85
WOODRUFF       SUNNY     85  61  44 S14G20    29.98F HX  85
RHINELANDER    MOSUNNY   86  61  42 S9G17     30.00F HX  86
EAGLE RIVER    SUNNY     84  55  36 S8        29.99F HX  83
LAND O LAKES   MOSUNNY   84  57  39 SW9       30.01S HX  83
PHILLIPS       MOSUNNY   85  60  43 S10G22    29.96F HX  84
TOMAHAWK       MOSUNNY   85  58  40 S3        29.99F HX  84
MEDFORD        SUNNY     85  59  41 S14G22    29.98F HX  85
MERRILL        SUNNY     87  61  41 S12G17    29.99F HX  87
$$

WIZ029-030-035-036-043>047-242200-
CENTRAL WISCONSIN

CITY           SKY/WX    TMP DP  RH WIND       PRES   REMARKS
WAUSAU         MOSUNNY   87  61  41 S13       29.97F HX  87
MOSINEE        MOSUNNY   86  63  45 S9G17     30.00F HX  87
MARSHFIELD     SUNNY     86  55  34 S17G23    29.98F HX  84
STEVENS POINT  MOSUNNY   85  59  42 S14       30.00S HX  84
WAUPACA        SUNNY     90  60  37 SE10G16   29.99F HX  89
WAUTOMA        SUNNY     89  61  38 S12G17    29.98F HX  89
WISC RAPIDS    SUNNY     89  61  38 SW12      29.99F HX  89
CAMP DOUGLAS   SUNNY     89  60  37 S9G17     29.97F HX  88
$$

WIZ011>013-019>022-031-037>040-048>050-242200-
NORTHEAST WISCONSIN

CITY           SKY/WX    TMP DP  RH WIND       PRES   REMARKS
ANTIGO         SUNNY     84  61  45 S13G22    30.02S HX  84
SHAWANO        SUNNY     90  61  37 SW5       29.99S HX  90
OCONTO         SUNNY     89  65  44 SW9       29.99S HX  90
STURGEON BAY   SUNNY     83  65  54 S16       30.01F HX  85
GREEN BAY      SUNNY     89  66  46 SW8       29.99F HX  91
MANITOWOC      SUNNY     79  67  66 SE10      30.02F HX  81
APPLETON       NOT AVBL
CLINTONVILLE   SUNNY     90  57  33 SW12      29.99F HX  88
OSHKOSH        MOSUNNY   87  64  46 S13       29.99F HX  88
$$

WIZ032>034-041-042-053>061-242200-
SOUTHWEST WISCONSIN

CITY           SKY/WX    TMP DP  RH WIND       PRES   REMARKS
LA CROSSE      SUNNY     93  61  34 S14       29.92F HX  93
SPARTA         SUNNY     88  59  37 S9        29.96F HX  87
VIROQUA        SUNNY     88  59  38 S7        29.98F HX  87
BOSCOBEL       SUNNY     91  60  35 S7        29.96F HX  90
PRAIRIE DU CHI SUNNY     90  57  33 SE13      29.94F HX  88
PLATTEVILLE    SUNNY     88  62  40 SW10G18   30.00F HX  88
$$

WIZ056-057-062-063-064-067-068-242200-
SOUTH CENTRAL WISCONSIN

CITY           SKY/WX    TMP DP  RH WIND       PRES   REMARKS
REEDSBURG      SUNNY     89  60  37 S9G16     29.97F HX  89
BARABOO/DELLS  SUNNY     89  53  29 S12G18    29.98F HX  86
LONE ROCK      SUNNY     89  59  36 S12G21    29.97F HX  88
MINERAL POINT  SUNNY     90  55  31 S6        30.01F HX  88
MADISON        SUNNY     89  58  34 S13       29.99F HX  88
MIDDLETON      SUNNY     90  54  29 S13       30.00F HX  88
WATERTOWN      SUNNY     86  61  42 S8        30.00F HX  86
MONROE         SUNNY     88  54  31 S13       30.00F HX  86
JANESVILLE     SUNNY     91  52  25 S12G17    29.99F HX  89
$$

WIZ051-052-058>065-066-070>072-242200-
SOUTHEAST WISCONSIN

CITY           SKY/WX    TMP DP  RH WIND       PRES   REMARKS
MILWAUKEE      MOSUNNY   86  64  47 SE15      30.01F HX  87
WAUKESHA       MOSUNNY   88  55  33 SE10G17   30.02F HX  86
MILWAUKEE/TIMM MOSUNNY   88  55  33 SE13      30.01F HX  86
RACINE         SUNNY     85  64  49 SE10      30.03F HX  86
BURLINGTON     SUNNY     91  60  36 S9        30.01F HX  90
KENOSHA        SUNNY     88  62  41 SE12      30.02F HX  88
FOND DU LAC    SUNNY     88  60  38 S10       30.00F HX  87
SHEBOYGAN      SUNNY     85  67  54 S9        30.02F HX  87
WEST BEND        N/A     86  61  42 SE9       30.01F HX  86
JUNEAU         SUNNY     87  61  42 S10       30.02F HX  86
$$

LSZ147-162-242200-
LAKE SUPERIOR

STATION/POSITION TIME  TEMP    WIND        PRES    WAVE
                       AIR SEA DIR/SP/G            HT/PER
                 (UTC) (F)     (DEG/KT/KT) (MB)    (FT/S)
W MID LAKE BUOY  2050   66 59   70/  6/  6 1011.9F   0
DEVILS ISLAND    2100   65      50/  5/  6 1011.8F
SAXON HARBOR     2030   88     210/ 10/ 15 1011.9F
$$

LMZ867-665-643>646-242200-
LAKE MICHIGAN

STATION/POSITION TIME  TEMP    WIND        PRES    WAVE
                       AIR SEA DIR/SP/G            HT/PER
                 (UTC) (F)     (DEG/KT/KT) (MB)    (FT/S)
S GREEN BAY BUOY 2100   81 71  220/  6/  6 1015.5
N MID LAKE BUOY  2050   70 67  180/  8/ 10 1017.1F   1/ 3
NORTHPORT PIER   2040   74     150/  7/ 13 1015.9F
KEWAUNEE LAKESHO 2042   67     180/  8/  9 1016.0F
SHEBOYGAN LAKESH 2100   71     190/  7/  7 1016.1F
PORT WASHINGTON  2030   78     170/  4/  5 1017.3F
ATWATER BUOY     2039   71 65  160/  8/ 10 1016.4F
MILWAUKEE LAKESH 2050   71     140/ 13/ 14   N/A
S MID LAKE BUOY  2050   74 72  150/  4/  4 1017.1F   1
KENOSHA   LAKESH 2100   76     200/  5/  7 1015.9
$$

TC  - TEMPERATURE IN CELSIUS
VSB - VISIBILITY IN STATUTE MILES
WCI - WIND CHILL INDEX
HX  - HEAT INDEX





USA.gov is the U.S. government's official web portal to all federal, state and local government web resources and services.